Lapse_Rate
8.9 9.2 9.4 9.7 9.6 9.7 9.7 9.8 9.6 8.0 7.7 7.2 7.8 8.3 8.8 9.4 8.7 8.6 6.8 6.1 4.7 5.4 5.9 6.1 6.7 7.4 8.0 8.4 8.2 8.4 9.6 9.7
9.0 9.0 9.3 9.5 9.6 9.5 9.5 9.4 9.4 9.4 9.2 8.4 9.5 9.3 9.6 9.3 9.0 6.9 6.2 5.5 4.9 5.2 6.6 6.0 6.7 8.2 7.8 7.5 7.8 7.6 9.4 7.9
8.8 9.0 9.1 9.2 9.3 9.3 9.4 9.5 9.5 9.0 9.3 9.4 9.4 9.0 9.5 9.8 8.7 6.8 6.1 5.7 5.1 5.4 7.5 6.6 6.5 9.0 7.5 7.6 7.8 9.2 9.2 7.8
8.7 8.8 8.9 9.1 9.1 9.3 9.4 9.6 9.6 9.4 9.7 10.0 9.9 9.9 9.5 8.7 8.6 5.7 5.4 4.9 5.5 6.4 6.1 6.2 6.5 7.9 8.3 7.9 8.2 8.1 9.2 9.3
8.7 8.8 8.9 9.0 9.1 9.4 9.5 9.6 9.6 9.6 9.3 9.6 9.2 9.3 9.0 9.2 8.9 5.8 6.3 5.2 6.1 6.8 5.0 5.8 6.5 7.9 9.4 7.9 7.8 9.1 9.0 9.2
8.5 8.7 8.8 9.1 9.2 9.2 9.2 9.5 9.6 9.6 9.5 9.3 9.1 8.2 9.5 9.6 8.9 6.8 5.7 5.3 5.1 5.1 5.6 5.5 6.4 7.7 7.7 7.8 7.3 7.6 6.6 6.4
8.5 8.8 9.0 9.1 9.2 9.0 7.7 8.0 9.1 9.3 8.0 7.0 7.8 9.1 9.3 8.5 6.6 6.3 6.4 6.4 6.1 5.4 5.2 5.6 6.8 7.8 7.3 7.1 6.6 5.4 5.8 3.9
8.4 8.6 8.8 8.9 8.9 9.0 8.1 7.7 8.8 8.9 8.0 6.9 6.8 7.4 7.3 5.6 6.2 6.5 6.4 6.0 5.3 3.9 4.7 5.4 7.6 7.4 6.9 6.4 4.9 5.0 3.6 3.2
8.4 8.6 8.7 8.8 8.8 8.9 7.1 5.9 7.6 8.8 7.3 5.9 6.5 5.7 5.1 4.5 4.5 5.9 6.8 4.5 3.4 4.1 4.6 6.9 7.7 6.6 4.6 4.7 2.8 5.4 5.7 4.2
8.4 8.6 8.7 8.8 8.9 8.9 7.7 6.4 7.9 9.1 7.7 8.2 6.3 3.7 3.8 3.4 4.2 5.0 5.7 3.9 3.2 4.7 6.8 7.3 4.0 3.6 5.8 3.5 4.0 5.1 5.0 5.2
8.2 8.5 8.7 8.9 9.1 9.1 9.1 8.3 8.7 9.3 9.3 8.1 5.4 4.2 3.2 4.3 3.9 5.5 4.7 3.8 4.6 5.5 4.6 2.6 4.4 3.6 3.6 3.7 3.1 4.1 5.2 5.4
8.0 8.3 8.7 8.9 9.1 9.1 9.1 8.5 9.0 9.3 9.4 8.9 5.0 5.0 4.6 5.2 5.1 4.4 3.8 3.4 4.3 4.0 2.5 3.0 1.8 3.2 3.7 4.0 5.1 4.8 4.8 7.3
8.2 8.3 8.5 8.7 8.8 8.9 9.0 9.0 9.1 9.3 9.4 8.9 5.9 5.3 5.0 5.2 4.3 3.4 2.7 2.7 1.5 2.9 2.0 2.2 2.7 2.9 3.7 3.3 4.0 5.3 7.6 9.4
8.2 8.1 8.3 8.4 8.6 8.7 8.9 8.8 8.9 9.1 8.1 5.7 5.2 4.7 4.1 3.3 2.3 1.0 0.3 -0.1 0.5 1.1 2.7 2.5 3.2 4.2 3.8 4.0 4.7 7.4 9.8 9.7
8.1 8.3 8.4 8.5 8.5 7.7 5.8 5.1 4.4 3.6 3.7 3.5 2.1 2.1 1.4 1.1 0.5 0.4 0.6 1.5 1.2 2.7 3.0 4.3 3.8 4.0 4.9 5.7 7.3 9.4 9.8 9.8
8.0 8.2 8.4 8.6 8.6 8.3 5.4 3.0 2.8 2.9 2.5 2.7 2.4 2.3 1.9 1.6 1.5 1.5 2.6 2.6 2.9 4.1 3.9 3.8 4.4 4.9 5.8 6.7 8.1 9.0 9.7 9.7
8.0 8.3 8.5 8.5 8.5 8.0 6.0 5.6 5.4 4.9 3.8 2.9 2.8 2.9 2.5 2.6 3.1 4.2 4.9 4.9 5.1 4.5 4.6 4.2 4.3 5.0 5.0 4.5 5.2 9.3 9.7 9.7
8.1 8.3 8.4 8.4 6.8 6.7 6.0 5.8 6.5 5.8 4.7 4.9 5.0 5.8 5.2 5.8 5.6 4.9 4.5 5.1 5.0 4.5 4.5 4.7 5.3 5.6 4.5 4.6 4.5 8.4 9.7 9.7
8.1 8.3 7.8 7.1 6.7 6.2 6.7 7.3 6.5 5.8 5.4 5.6 5.8 5.8 5.7 6.1 6.2 5.6 5.4 5.0 5.1 5.7 6.3 5.6 7.1 9.5 5.7 4.5 3.9 8.0 9.6 9.7
Wind_Speed
14 15 15 17 17 15 15 14 13 10 8 9 9 11 13 13 13 11 11 13 15 14 13 13 15 11 7 7 6 4 3 1
15 14 17 18 19 18 18 17 14 10 9 9 9 9 9 8 11 11 11 12 16 16 14 15 14 9 8 9 7 7 5 2
15 16 17 17 19 19 18 17 16 13 9 9 8 9 10 10 12 11 12 13 15 15 15 14 15 9 10 9 8 5 3 2
17 18 19 18 19 19 18 17 16 15 14 10 8 8 6 8 8 7 11 14 16 18 16 16 14 11 9 9 8 8 5 4
17 19 20 20 19 18 18 18 17 15 16 13 13 11 10 9 8 8 10 16 17 16 16 16 13 13 9 9 9 6 4 4
19 20 20 19 18 17 16 17 18 16 16 16 12 13 9 7 7 10 11 12 14 14 15 14 12 13 12 9 9 8 4 1
18 18 18 19 18 18 17 19 18 18 17 18 17 15 13 9 11 10 9 8 10 16 17 15 16 15 11 11 12 9 7 4
18 19 20 19 20 20 18 20 20 19 19 18 18 17 14 14 12 10 12 10 9 10 14 12 14 15 15 12 9 8 7 6
19 20 19 19 20 20 19 20 19 19 18 18 15 16 12 10 11 10 10 8 7 9 14 17 16 14 12 13 8 6 7 5
17 19 17 17 18 19 19 17 17 17 17 15 15 14 15 11 11 9 9 7 6 12 17 12 11 13 12 10 3 5 5 6
7 11 15 15 15 14 15 15 16 15 15 13 11 14 13 11 9 12 12 8 11 12 12 11 13 12 14 9 6 5 5 4
4 7 9 11 11 11 12 12 13 13 13 12 10 11 13 12 10 10 10 9 11 14 13 12 11 10 8 6 5 4 6 10
1 3 5 6 8 9 9 9 10 10 10 10 12 9 10 11 10 9 8 7 8 7 9 10 10 10 8 6 6 7 11 12
2 4 4 5 5 5 6 6 6 6 5 5 4 5 5 5 6 8 8 10 9 8 10 8 9 7 6 7 9 11 11 12
4 5 6 6 5 6 5 5 4 7 7 7 7 7 8 8 9 9 10 11 11 11 8 8 7 7 7 9 10 12 11 12
4 5 6 7 8 8 9 8 8 9 9 9 8 8 9 9 9 8 9 9 10 10 9 7 5 4 5 10 9 12 13 12
6 6 8 9 9 10 10 10 10 10 11 11 10 11 11 11 11 11 12 10 11 9 7 6 5 5 8 8 11 14 14 14
10 9 10 10 11 11 12 12 11 12 13 12 12 11 12 12 12 12 11 11 7 5 4 4 7 8 9 12 10 12 13 14
10 10 11 12 12 13 13 13 13 13 13 13 13 14 14 13 12 10 8 5 5 4 5 5 8 7 3 5 7 12 13 16
Wind_Direction
178 177 171 176 173 185 188 186 196 191 179 179 180 185 195 197 201 206 194 198 194 188 188 177 182 173 173 172 158 168 179 166
178 186 182 185 189 192 193 193 197 193 190 189 195 196 203 201 208 207 191 195 193 191 189 180 187 188 181 169 163 175 169 146
187 190 194 197 196 199 200 202 199 201 201 199 204 206 208 212 209 204 205 200 193 191 194 186 189 186 175 173 182 176 162 164
195 198 201 202 205 205 209 209 206 203 209 199 199 203 207 209 205 204 208 203 199 200 192 189 191 188 185 183 187 189 189 178
204 199 203 205 206 206 210 210 209 207 203 202 205 204 212 209 209 207 208 205 205 200 194 190 187 196 187 187 187 191 208 206
207 202 203 205 205 206 209 211 214 207 204 212 207 219 223 215 210 215 210 201 199 197 197 188 192 195 190 183 176 177 146 136
218 207 201 204 204 204 204 207 208 208 208 210 213 215 212 192 206 211 204 204 200 198 195 193 198 200 186 183 173 156 155 151
213 210 204 203 203 202 203 206 210 207 206 210 211 213 211 206 211 213 204 202 199 193 190 196 201 197 190 167 163 155 165 175
218 210 209 206 205 201 203 206 210 206 207 212 206 208 210 214 201 212 219 197 189 186 195 200 198 186 157 165 144 169 196 199
219 218 213 211 208 209 208 209 213 211 208 210 207 211 214 207 219 199 205 185 171 204 198 197 139 156 169 160 123 177 209 203
218 223 221 219 216 208 209 214 216 213 208 212 215 217 217 213 199 216 202 189 201 186 177 157 162 154 171 161 157 190 202 214
192 204 207 211 215 206 206 210 215 211 212 208 202 213 213 213 212 209 198 179 186 182 170 152 149 158 156 162 182 185 217 232
188 178 176 181 190 192 198 207 211 213 212 207 212 198 209 213 204 199 183 143 142 141 134 157 169 151 154 165 193 228 231 236
165 157 159 162 167 174 183 186 196 199 191 176 175 160 156 150 115 107 114 123 120 141 160 144 129 143 175 191 219 238 241 246
222 171 146 137 134 134 151 148 120 106 113 112 112 118 124 126 130 135 140 147 143 146 133 127 138 157 207 229 239 244 257 249
199 191 155 140 130 114 95 102 105 113 110 112 114 111 108 112 116 117 120 119 130 131 125 125 166 201 234 252 272 276 263 261
99 124 119 108 108 103 107 107 108 110 104 100 105 106 106 111 114 123 122 114 118 118 138 169 191 225 241 265 267 279 277 270
96 97 98 99 98 102 100 102 105 102 101 107 109 112 109 106 107 103 102 108 130 134 157 210 245 257 243 251 261 275 276 275
107 107 105 103 103 102 104 100 98 100 101 104 107 108 106 109 104 108 123 134 149 207 246 248 249 262 181 257 259 284 279 275